Regional Weather Roundup
Issued by NWS

Home | Current Version | Previous Version | Graphics & Text | Print | Product List | Glossary On
Versions: 1 2 3 4 5 6 7 8 9 10 11 12 13 14 15 16 17 18 19 20 21 22 23 24 25 26 27 28 29 30 31 32 33 34 35 36 37 38 39 40 41 42 43 44 45 46 47 48 49 50
000
ASUS45 KCYS 030710
RWRWY

WYOMING REGIONAL WEATHER ROUNDUP
NATIONAL WEATHER SERVICE CHEYENNE WY
100 AM MDT FRI JUL 03 2015

NOTE:  "FAIR" INDICATES FEW OR NO CLOUDS BELOW 12,000 FEET
WITH NO SIGNIFICANT WEATHER AND/OR OBSTRUCTIONS TO VISIBILITY.

WYZ001-030800-
YELLOWSTONE NATIONAL PARK

CITY           SKY/WX    TMP DP  RH WIND       PRES   REMARKS
LK YELLOWSTONE   N/A     49  38  65 NW3       30.35R
W YELLOWSTONE  NOT AVBL

$$
WYZ002>013-054>058-071-098>099-030800-
NORTHERN WYOMING

CITY           SKY/WX    TMP DP  RH WIND       PRES   REMARKS
JACKSON        FAIR      57  41  54 N3        30.22R
CODY           FAIR      63  48  59 CALM      30.18F
GREYBULL       MOCLDY    73  50  44 CALM      30.08R
WORLAND        FAIR      69  55  60 SW5       30.10S
SHERIDAN       FAIR      58  52  80 CALM      30.12F
BUFFALO        FAIR      60  52  74 W8        30.18F
GILLETTE       FAIR      56  52  86 S6        30.15F
HULETT         FAIR      59  54  82 S5        30.15F
NEWCASTLE      FAIR      57  52  82 E6        30.16S

$$
WYZ014>020-022>026-101>103-030800-
CENTRAL WYOMING

CITY           SKY/WX    TMP DP  RH WIND       PRES   REMARKS
BIG PINEY      FAIR      54  35  48 NW5       30.28R
PINEDALE       FAIR      54  37  54 NW6       30.29R
DUBOIS         FAIR      57  46  67 SE3       30.31R
LANDER         FAIR      64  53  67 NW7       30.21R
RIVERTON       MOCLDY    68  53  58 NE9       30.21R
CASPER         CLOUDY    64  54  69 NE6       30.20S
DOUGLAS        CLOUDY    65  58  78 N5        30.21R

$$
WYZ021-027>030-104>119-030800-
SOUTHERN WYOMING

CITY           SKY/WX    TMP DP  RH WIND       PRES   REMARKS
EVANSTON       FAIR      66  41  40 E6        30.26R
KEMMERER       FAIR      63  46  55 N9        30.30R
FORT BRIDGER   SUNNY     64  34  32 W6        30.28R
ROCK SPRINGS   FAIR      61  50  67 E7        30.25R
DIXON          PTSUNNY   60  46  59 NE3       30.24R
RAWLINS        FAIR      56  51  84 NE12      30.26R
SARATOGA       FAIR      50  46  87 SE5       30.27F
LARAMIE        FAIR      54  49  83 E7        30.30R
CHEYENNE       CLOUDY    64  54  69 CALM      30.24F
TORRINGTON     MOCLDY    64  60  87 SE5       30.14S
PINE BLUFFS    FAIR      59  54  82 CALM      30.20S

$$


USA.gov is the U.S. government's official web portal to all federal, state and local government web resources and services.